Total_Precipitation_Accumulation
0.69 0.76 1.02 1.48 1.51 1.99 2.25 2.15 2.30 2.60 2.50 2.09 1.74 1.89 1.98 2.21 2.40 2.02 1.79 1.69 1.58 1.44 1.61 1.89 1.87 2.26 2.32 2.08 1.96 1.96 2.16 2.21 1.81 1.02 1.04 1.25 1.52 1.52 1.29 1.21 1.19 1.16 1.04
1.67 1.83 1.91 2.31 2.55 2.41 2.56 2.41 2.00 2.78 2.89 2.63 2.54 2.16 2.42 2.14 1.85 1.77 1.64 1.47 1.60 1.59 1.54 1.73 1.74 2.06 2.08 1.85 1.73 1.48 1.39 1.52 1.64 1.18 1.20 1.36 1.42 1.37 1.20 1.20 1.23 1.23 1.06
2.11 2.25 1.96 2.31 2.49 2.81 2.64 2.42 2.24 2.09 2.67 2.69 2.73 2.61 1.95 2.09 1.64 1.40 1.40 1.54 1.37 1.63 1.65 1.50 1.43 1.69 1.81 1.61 1.45 1.34 1.30 1.44 1.54 1.62 1.53 1.59 1.61 1.47 1.38 1.26 1.20 1.12 1.19
1.41 1.38 1.67 1.82 1.70 1.73 1.60 1.77 1.95 1.98 1.86 1.76 1.90 1.98 1.84 1.47 1.59 1.44 1.28 1.08 1.17 1.08 1.22 1.46 1.40 1.34 1.54 1.63 1.48 1.37 1.34 1.52 1.63 1.80 1.85 1.84 1.63 1.42 1.11 1.13 1.36 1.43 1.39
1.34 1.15 1.10 1.23 1.40 1.07 1.01 1.09 1.51 1.53 1.58 1.78 1.81 1.85 2.01 1.77 1.48 1.41 1.38 1.15 1.09 1.07 0.95 0.93 1.11 1.43 1.61 1.68 1.58 1.42 1.45 1.68 1.76 1.87 1.92 1.85 1.70 1.54 1.36 1.12 1.19 1.43 1.76
1.02 0.94 0.86 0.78 0.82 0.86 0.88 0.76 0.82 1.02 1.11 1.22 1.46 1.88 2.15 2.27 2.13 1.57 1.27 1.25 1.22 1.08 1.09 0.95 0.94 1.37 1.25 1.60 1.93 1.88 1.65 1.90 1.93 1.78 1.66 1.68 1.48 1.47 1.40 1.39 1.58 1.71 1.74
0.87 0.84 0.65 0.55 0.53 0.46 0.39 0.38 0.41 0.61 0.81 1.05 1.21 1.23 1.34 1.68 2.16 1.80 1.57 1.22 1.17 1.22 1.19 1.08 0.99 1.12 1.29 0.97 1.52 1.65 1.65 2.06 2.09 2.00 2.03 1.76 1.73 1.65 1.56 1.64 1.46 1.37 1.41
0.72 0.71 0.66 0.47 0.38 0.42 0.39 0.45 0.50 0.54 0.53 0.47 0.49 0.54 0.61 0.82 1.28 1.35 1.54 1.35 1.34 1.30 1.20 1.25 1.22 1.13 1.25 1.43 1.44 1.46 1.34 1.47 1.76 1.70 1.66 1.76 1.83 1.74 1.50 1.37 1.50 1.70 1.59
0.69 0.67 0.64 0.59 0.46 0.55 0.67 0.79 0.76 0.66 0.58 0.50 0.42 0.41 0.41 0.42 0.59 0.59 0.73 0.70 0.93 1.16 1.19 1.24 1.32 1.22 1.56 1.42 1.27 1.46 1.55 1.59 2.01 2.03 1.91 1.85 1.85 1.91 1.84 1.91 1.99 1.79 1.85
0.81 0.77 0.73 0.67 0.74 0.78 0.74 0.80 0.88 0.83 0.90 1.03 0.97 0.77 0.91 0.71 0.95 0.74 0.68 0.51 0.55 0.55 0.63 0.74 1.13 0.88 1.21 1.10 1.04 1.02 1.24 1.37 1.54 1.74 1.71 1.48 1.29 1.43 1.70 1.50 1.67 2.27 2.19
1.16 1.01 1.18 1.04 0.83 0.68 0.67 0.63 0.91 1.01 1.05 1.16 1.32 1.25 1.05 1.18 1.26 1.35 1.04 0.63 0.55 0.55 0.58 0.62 0.84 1.45 1.13 1.19 1.13 1.13 1.64 1.62 1.79 1.60 1.73 1.93 1.83 1.64 1.61 1.71 1.74 2.08 2.22
1.63 1.54 1.28 1.52 1.33 1.10 0.95 0.88 0.79 1.16 1.59 1.63 1.51 1.46 1.32 1.30 1.82 1.56 1.32 1.52 1.70 1.35 1.47 1.46 1.68 1.72 1.55 1.78 1.85 2.23 2.23 1.97 1.66 1.77 1.78 1.85 1.92 1.92 1.78 1.66 1.65 1.78 1.85
1.27 1.57 1.65 1.63 1.86 1.69 1.55 1.40 1.31 1.17 1.19 1.38 1.54 1.59 1.53 1.42 1.78 2.10 1.84 1.88 2.00 1.75 2.08 2.46 2.56 2.18 1.88 1.97 2.28 2.31 2.27 2.20 2.25 2.25 2.15 1.90 1.52 1.31 1.25 1.19 1.09 0.99 1.12
0.80 0.89 1.12 1.46 1.69 1.87 2.01 1.99 1.86 1.82 1.74 1.77 1.82 1.93 1.90 1.80 1.70 1.90 2.20 2.31 2.48 2.71 3.15 3.26 3.22 2.91 2.74 2.72 2.68 2.42 2.14 2.13 1.99 1.72 1.45 1.25 1.11 0.98 1.00 1.03 1.23 1.13 1.19
0.44 0.45 0.53 0.78 1.08 1.39 1.85 2.39 2.42 2.59 2.51 2.33 2.29 2.20 2.34 2.60 2.99 2.88 2.73 2.73 2.88 2.91 2.83 2.86 2.75 2.37 2.05 1.78 1.51 1.33 1.21 1.14 1.14 1.05 1.06 1.05 0.99 0.99 0.99 0.89 0.91 0.87 0.99
0.34 0.36 0.47 0.48 0.66 0.91 1.24 1.77 2.45 2.79 2.75 2.79 2.94 2.89 3.17 3.38 3.44 3.10 2.96 2.97 2.94 2.70 2.37 2.10 1.95 1.81 1.61 1.44 1.26 1.07 0.96 1.06 0.92 0.94 1.06 1.04 1.05 1.04 1.05 1.01 1.01 1.02 1.00
0.74 0.67 0.74 0.81 0.82 0.93 1.08 1.34 1.96 2.55 2.79 3.03 3.10 3.12 3.11 3.24 3.04 2.90 2.78 2.64 2.48 2.11 2.17 2.09 1.97 1.84 1.68 1.48 1.34 1.30 1.31 1.25 1.12 1.10 1.13 1.21 1.28 1.29 1.37 1.17 1.07 0.98 0.99
1.57 1.46 1.42 1.61 1.72 1.81 1.87 1.99 2.03 2.08 2.03 2.06 2.05 1.92 1.88 1.90 1.87 1.88 1.95 2.02 2.24 2.08 1.92 1.86 1.88 1.87 1.79 1.72 1.67 1.56 1.45 1.40 1.37 1.37 1.25 1.16 1.14 1.14 1.18 1.12 1.09 1.08 1.04
0.97 1.21 1.18 1.20 1.16 1.13 1.09 1.14 1.15 1.16 1.15 1.17 1.08 0.98 0.96 0.96 0.95 0.96 0.96 1.12 1.19 1.29 1.44 1.48 1.48 1.46 1.46 1.46 1.47 1.48 1.48 1.50 1.45 1.39 1.39 1.39 1.36 1.25 1.24 1.16 1.10 1.05 0.97
0.81 0.96 0.90 0.90 0.99 0.93 0.80 0.71 0.67 0.66 0.69 0.64 0.60 0.63 0.56 0.50 0.50 0.58 0.70 0.79 0.86 0.89 0.92 0.96 0.98 0.96 0.95 0.98 1.06 1.11 1.09 1.10 1.18 1.22 1.25 1.28 1.32 1.29 1.29 1.23 1.18 1.16 1.05
0.88 0.87 0.79 0.67 0.63 0.62 0.58 0.54 0.51 0.58 0.58 0.52 0.45 0.40 0.36 0.41 0.42 0.45 0.50 0.60 0.60 0.63 0.66 0.68 0.68 0.70 0.65 0.66 0.65 0.69 0.73 0.76 0.79 0.86 0.89 0.97 1.03 1.06 1.02 1.05 1.02 0.93 0.84
0.65 0.60 0.54 0.53 0.51 0.47 0.42 0.37 0.40 0.42 0.41 0.42 0.46 0.53 0.62 0.67 0.49 0.43 0.43 0.45 0.46 0.47 0.48 0.50 0.50 0.49 0.49 0.53 0.57 0.60 0.57 0.57 0.60 0.65 0.64 0.67 0.73 0.77 0.79 0.81 0.81 0.80 0.78
0.40 0.41 0.39 0.39 0.38 0.36 0.37 0.36 0.41 0.43 0.43 0.47 0.47 0.49 0.55 0.59 0.54 0.52 0.51 0.49 0.49 0.45 0.39 0.40 0.36 0.34 0.31 0.37 0.46 0.55 0.58 0.50 0.52 0.60 0.62 0.55 0.56 0.62 0.67 0.70 0.69 0.74 0.72
0.27 0.29 0.31 0.30 0.32 0.32 0.33 0.36 0.40 0.46 0.50 0.50 0.48 0.51 0.56 0.60 0.60 0.57 0.55 0.55 0.56 0.51 0.50 0.49 0.38 0.35 0.35 0.36 0.38 0.42 0.42 0.43 0.52 0.54 0.60 0.66 0.52 0.44 0.55 0.60 0.58 0.59 0.61
0.23 0.28 0.30 0.33 0.37 0.42 0.45 0.45 0.42 0.36 0.37 0.39 0.41 0.43 0.42 0.48 0.53 0.57 0.59 0.60 0.60 0.62 0.64 0.61 0.55 0.50 0.55 0.60 0.61 0.51 0.44 0.48 0.55 0.57 0.67 0.63 0.53 0.47 0.54 0.56 0.53 0.56 0.58
0.25 0.30 0.33 0.38 0.43 0.43 0.43 0.39 0.37 0.32 0.32 0.31 0.31 0.32 0.34 0.36 0.38 0.43 0.47 0.49 0.54 0.59 0.66 0.70 0.69 0.64 0.62 0.61 0.62 0.57 0.53 0.60 0.63 0.66 0.77 0.72 0.59 0.49 0.51 0.57 0.56 0.63 0.55